| time (UTC) | temp F | wind direction | speed MPH | gust MPH | rain 1hr in | rain 24hr in | rain mn in | humidity % | barometer mb |
| 20260831231903 | 79 | 182 | 0.0 | 0.0 | 0.00 | 0.02 | 0.02 | 77 | 1014.5 |
| 20260831231343 | 80 | 182 | 0.0 | 0.0 | 0.00 | 0.02 | 0.02 | 78 | 1014.5 |
| 20260831230825 | 80 | 182 | 0.0 | 0.0 | 0.00 | 0.02 | 0.02 | 77 | 1014.5 |
| 20260831230331 | 79 | 182 | 0.0 | 1.0 | 0.00 | 0.04 | 0.02 | 76 | 1014.1 |
| 20260831225819 | 79 | 182 | 0.0 | 1.0 | 0.00 | 0.04 | 0.02 | 77 | 1014.1 |
| 20260831225338 | 79 | 188 | 0.0 | 0.0 | 0.00 | 0.04 | 0.02 | 79 | 1014.1 |
| 20260831224843 | 79 | 206 | 0.0 | 0.0 | 0.00 | 0.04 | 0.02 | 79 | 1014.6 |
| 20260831224335 | 79 | 209 | 0.0 | 0.0 | 0.00 | 0.04 | 0.02 | 79 | 1014.6 |
| 20260831223821 | 79 | 209 | 0.0 | 0.0 | 0.00 | 0.04 | 0.02 | 78 | 1014.6 |
| 20260831223345 | 79 | 209 | 0.0 | 0.0 | 0.00 | 0.04 | 0.02 | 79 | 1015.0 |
| 20260831222816 | 79 | 209 | 0.0 | 0.0 | 0.00 | 0.04 | 0.02 | 80 | 1015.0 |
| 20260831222326 | 79 | 209 | 0.0 | 0.0 | 0.01 | 0.04 | 0.02 | 80 | 1015.0 |
| 20260831221824 | 79 | 209 | 0.0 | 0.0 | 0.01 | 0.04 | 0.02 | 80 | 1014.8 |
| 20260831221346 | 79 | 209 | 0.0 | 0.0 | 0.01 | 0.04 | 0.02 | 80 | 1014.8 |
| 20260831220842 | 79 | 209 | 0.0 | 0.0 | 0.01 | 0.04 | 0.02 | 79 | 1014.8 |
| 20260831220327 | 80 | 209 | 0.0 | 0.0 | 0.01 | 0.04 | 0.02 | 79 | 1015.0 |
| 20260831215831 | 80 | 209 | 0.0 | 0.0 | 0.01 | 0.04 | 0.02 | 79 | 1015.0 |
| 20260831215311 | 81 | 209 | 0.0 | 0.0 | 0.01 | 0.04 | 0.02 | 77 | 1015.0 |
| 20260831214820 | 81 | 209 | 0.0 | 0.0 | 0.01 | 0.04 | 0.02 | 75 | 1015.0 |
| 20260831214321 | 82 | 209 | 0.0 | 0.0 | 0.01 | 0.04 | 0.02 | 73 | 1015.0 |
| 20260831213827 | 82 | 209 | 0.0 | 0.0 | 0.01 | 0.04 | 0.02 | 72 | 1015.0 |
| 20260831213340 | 83 | 209 | 0.0 | 0.0 | 0.01 | 0.04 | 0.02 | 71 | 1014.5 |
| 20260831212827 | 83 | 209 | 0.0 | 0.0 | 0.01 | 0.04 | 0.02 | 69 | 1014.5 |
| 20260831212335 | 83 | 209 | 0.0 | 4.0 | 0.00 | 0.03 | 0.01 | 66 | 1014.5 |
| 20260831211819 | 83 | 208 | 0.0 | 4.0 | 0.00 | 0.03 | 0.01 | 63 | 1014.0 |
| 20260831211323 | 84 | 211 | 0.0 | 8.0 | 0.00 | 0.03 | 0.01 | 65 | 1014.0 |
| 20260831210824 | 84 | 213 | 2.0 | 8.0 | 0.00 | 0.03 | 0.01 | 65 | 1014.0 |
| 20260831210332 | 84 | 219 | 0.0 | 7.0 | 0.00 | 0.03 | 0.01 | 66 | 1013.6 |
| 20260831205823 | 85 | 232 | 0.0 | 6.0 | 0.00 | 0.03 | 0.01 | 66 | 1013.6 |
| 20260831205342 | 85 | 213 | 0.0 | 8.0 | 0.00 | 0.03 | 0.01 | 65 | 1013.6 |
| 20260831204824 | 85 | 213 | 3.0 | 9.0 | 0.00 | 0.03 | 0.01 | 63 | 1013.5 |
| 20260831204328 | 85 | 186 | 3.0 | 9.0 | 0.00 | 0.03 | 0.01 | 62 | 1013.5 |
| 20260831203830 | 85 | 183 | 2.0 | 8.0 | 0.00 | 0.03 | 0.01 | 63 | 1013.5 |
| 20260831203315 | 85 | 234 | 2.0 | 9.0 | 0.00 | 0.03 | 0.01 | 64 | 1013.5 |
| 20260831202817 | 85 | 227 | 0.0 | 9.0 | 0.00 | 0.03 | 0.01 | 65 | 1013.5 |
| 20260831202322 | 85 | 215 | 5.0 | 9.0 | 0.00 | 0.03 | 0.01 | 67 | 1013.5 |
| 20260831201828 | 85 | 221 | 1.0 | 8.0 | 0.00 | 0.03 | 0.01 | 67 | 1013.7 |
| 20260831201331 | 85 | 186 | 2.0 | 8.0 | 0.00 | 0.03 | 0.01 | 66 | 1013.7 |
| 20260831200812 | 85 | 195 | 0.0 | 10.0 | 0.00 | 0.03 | 0.01 | 67 | 1013.7 |
| 20260831200326 | 85 | 224 | 1.0 | 18.0 | 0.00 | 0.03 | 0.01 | 67 | 1013.9 |
| 20260831195830 | 85 | 206 | 3.0 | 18.0 | 0.00 | 0.03 | 0.01 | 67 | 1013.9 |
| 20260831195313 | 84 | 217 | 2.0 | 15.0 | 0.00 | 0.03 | 0.01 | 67 | 1013.9 |
| 20260831194820 | 84 | 231 | 1.0 | 11.0 | 0.00 | 0.03 | 0.01 | 67 | 1014.0 |
| 20260831194320 | 84 | 245 | 3.0 | 11.0 | 0.00 | 0.03 | 0.01 | 69 | 1014.0 |
| 20260831193819 | 84 | 182 | 3.0 | 11.0 | 0.00 | 0.03 | 0.01 | 69 | 1014.0 |
| 20260831193324 | 84 | 183 | 1.0 | 10.0 | 0.00 | 0.03 | 0.01 | 69 | 1014.1 |
| 20260831192826 | 84 | 221 | 2.0 | 12.0 | 0.00 | 0.03 | 0.01 | 71 | 1014.1 |
| 20260831192316 | 83 | 229 | 3.0 | 12.0 | 0.00 | 0.03 | 0.01 | 70 | 1014.1 |
| 20260831191827 | 83 | 219 | 4.0 | 12.0 | 0.00 | 0.03 | 0.01 | 69 | 1014.5 |
| 20260831191337 | 84 | 196 | 0.0 | 7.0 | 0.00 | 0.03 | 0.01 | 69 | 1014.5 |
| 20260831190820 | 84 | 251 | 0.0 | 11.0 | 0.01 | 0.03 | 0.01 | 70 | 1014.5 |
| 20260831190342 | 84 | 213 | 1.0 | 11.0 | 0.01 | 0.03 | 0.01 | 69 | 1014.1 |
| 20260831185853 | 84 | 184 | 1.0 | 10.0 | 0.01 | 0.03 | 0.01 | 70 | 1014.1 |
| 20260831185331 | 83 | 205 | 3.0 | 10.0 | 0.01 | 0.03 | 0.01 | 70 | 1014.1 |
| 20260831184818 | 83 | 208 | 0.0 | 11.0 | 0.01 | 0.03 | 0.01 | 71 | 1014.1 |
| 20260831184320 | 83 | 190 | 0.0 | 10.0 | 0.01 | 0.03 | 0.01 | 71 | 1014.1 |
| 20260831183822 | 82 | 200 | 4.0 | 10.0 | 0.01 | 0.03 | 0.01 | 71 | 1014.1 |
| 20260831183355 | 83 | 192 | 1.0 | 10.0 | 0.01 | 0.03 | 0.01 | 70 | 1014.1 |
| 20260831182820 | 83 | 192 | 2.0 | 10.0 | 0.01 | 0.03 | 0.01 | 71 | 1014.1 |
| 20260831182327 | 83 | 199 | 3.0 | 9.0 | 0.01 | 0.03 | 0.01 | 72 | 1014.1 |
| 20260831181818 | 83 | 221 | 1.0 | 8.0 | 0.01 | 0.03 | 0.01 | 72 | 1014.6 |
| 20260831181321 | 83 | 171 | 1.0 | 10.0 | 0.01 | 0.03 | 0.01 | 72 | 1014.6 |
| 20260831180836 | 82 | 266 | 2.0 | 10.0 | 0.00 | 0.02 | 0.00 | 74 | 1014.6 |
| 20260831180339 | 82 | 208 | 1.0 | 6.0 | 0.00 | 0.02 | 0.00 | 73 | 1015.0 |
| 20260831175840 | 82 | 192 | 1.0 | 6.0 | 0.00 | 0.02 | 0.00 | 73 | 1015.0 |
| 20260831175326 | 82 | 225 | 1.0 | 6.0 | 0.00 | 0.02 | 0.00 | 74 | 1015.0 |
| 20260831174843 | 82 | 195 | 0.0 | 2.0 | 0.00 | 0.02 | 0.00 | 73 | 1015.1 |
| 20260831174323 | 82 | 234 | 0.0 | 6.0 | 0.00 | 0.02 | 0.00 | 74 | 1015.1 |
| 20260831173829 | 81 | 234 | 1.0 | 6.0 | 0.00 | 0.02 | 0.00 | 75 | 1015.1 |
| 20260831173313 | 81 | 208 | 0.0 | 5.0 | 0.00 | 0.02 | 0.00 | 75 | 1015.3 |
| 20260831172822 | 81 | 208 | 0.0 | 4.0 | 0.00 | 0.02 | 0.00 | 75 | 1015.3 |
| 20260831172327 | 80 | 208 | 0.0 | 1.0 | 0.00 | 0.02 | 0.00 | 76 | 1015.3 |
| 20260831171832 | 80 | 208 | 0.0 | 6.0 | 0.00 | 0.02 | 0.00 | 75 | 1015.6 |
| 20260831171318 | 80 | 208 | 1.0 | 6.0 | 0.00 | 0.02 | 0.00 | 75 | 1015.6 |
| 20260831170823 | 80 | 200 | 0.0 | 0.0 | 0.00 | 0.02 | 0.00 | 75 | 1015.6 |
| 20260831170344 | 80 | 200 | 0.0 | 1.0 | 0.00 | 0.04 | 0.00 | 75 | 1015.5 |
| 20260831165825 | 80 | 200 | 0.0 | 1.0 | 0.00 | 0.04 | 0.00 | 75 | 1015.5 |
| 20260831165336 | 80 | 199 | 0.0 | 1.0 | 0.00 | 0.04 | 0.00 | 75 | 1015.5 |
| 20260831164819 | 80 | 199 | 0.0 | 2.0 | 0.00 | 0.04 | 0.00 | 74 | 1015.6 |
| 20260831164320 | 81 | 207 | 0.0 | 6.0 | 0.00 | 0.04 | 0.00 | 74 | 1015.6 |
| 20260831163835 | 81 | 217 | 0.0 | 7.0 | 0.00 | 0.04 | 0.00 | 74 | 1015.6 |
| 20260831163339 | 81 | 235 | 1.0 | 7.0 | 0.00 | 0.04 | 0.00 | 74 | 1015.6 |
| 20260831162825 | 81 | 215 | 2.0 | 9.0 | 0.00 | 0.04 | 0.00 | 74 | 1015.6 |
| 20260831162349 | 81 | 227 | 1.0 | 6.0 | 0.00 | 0.04 | 0.00 | 75 | 1015.6 |
| 20260831161830 | 81 | 222 | 0.0 | 9.0 | 0.00 | 0.04 | 0.00 | 74 | 1015.5 |
| 20260831161345 | 81 | 219 | 2.0 | 8.0 | 0.00 | 0.04 | 0.00 | 74 | 1015.5 |
| 20260831160826 | 80 | 217 | 1.0 | 8.0 | 0.00 | 0.04 | 0.00 | 75 | 1015.5 |
| 20260831160334 | 80 | 186 | 2.0 | 8.0 | 0.00 | 0.04 | 0.00 | 75 | 1015.6 |
| 20260831155820 | 80 | 219 | 3.0 | 8.0 | 0.00 | 0.04 | 0.00 | 76 | 1015.6 |
| 20260831155321 | 80 | 225 | 0.0 | 1.0 | 0.00 | 0.04 | 0.00 | 76 | 1015.6 |
| 20260831154826 | 80 | 225 | 0.0 | 5.0 | 0.00 | 0.04 | 0.00 | 76 | 1015.4 |
| 20260831154329 | 79 | 225 | 0.0 | 8.0 | 0.00 | 0.04 | 0.00 | 77 | 1015.4 |
| 20260831153842 | 79 | 225 | 2.0 | 8.0 | 0.00 | 0.04 | 0.00 | 77 | 1015.4 |
| 20260831153324 | 79 | 221 | 0.0 | 8.0 | 0.00 | 0.04 | 0.00 | 77 | 1015.5 |
| 20260831152834 | 79 | 221 | 1.0 | 8.0 | 0.00 | 0.04 | 0.00 | 77 | 1015.5 |
| 20260831152314 | 79 | 223 | 2.0 | 9.0 | 0.00 | 0.04 | 0.00 | 77 | 1015.5 |
| 20260831151821 | 79 | 223 | 0.0 | 5.0 | 0.00 | 0.04 | 0.00 | 78 | 1015.6 |
| 20260831151323 | 79 | 221 | 0.0 | 4.0 | 0.00 | 0.04 | 0.00 | 78 | 1015.6 |
| 20260831150828 | 79 | 221 | 0.0 | 4.0 | 0.00 | 0.04 | 0.00 | 78 | 1015.6 |
| 20260831150311 | 78 | 221 | 0.0 | 4.0 | 0.00 | 0.05 | 0.00 | 78 | 1015.6 |
| 20260831145848 | 78 | 221 | 0.0 | 1.0 | 0.00 | 0.05 | 0.00 | 79 | 1015.6 |
| 20260831145347 | 78 | 221 | 0.0 | 5.0 | 0.00 | 0.05 | 0.00 | 78 | 1015.6 |
| 20260831144828 | 78 | 221 | 0.0 | 5.0 | 0.00 | 0.05 | 0.00 | 78 | 1015.6 |
| 20260831144343 | 78 | 223 | 0.0 | 9.0 | 0.00 | 0.05 | 0.00 | 78 | 1015.6 |
| 20260831143824 | 78 | 202 | 3.0 | 9.0 | 0.00 | 0.05 | 0.00 | 78 | 1015.6 |
| 20260831143332 | 78 | 228 | 0.0 | 8.0 | 0.00 | 0.05 | 0.00 | 78 | 1015.5 |
| 20260831142820 | 78 | 228 | 0.0 | 8.0 | 0.00 | 0.05 | 0.00 | 78 | 1015.5 |
| 20260831142335 | 78 | 229 | 0.0 | 8.0 | 0.00 | 0.05 | 0.00 | 78 | 1015.5 |
| 20260831141820 | 78 | 225 | 0.0 | 10.0 | 0.00 | 0.05 | 0.00 | 78 | 1015.1 |
| 20260831141322 | 78 | 220 | 1.0 | 10.0 | 0.00 | 0.05 | 0.00 | 78 | 1015.1 |
| 20260831140826 | 78 | 215 | 0.0 | 9.0 | 0.00 | 0.05 | 0.00 | 78 | 1015.1 |
| 20260831140341 | 78 | 202 | 1.0 | 11.0 | 0.00 | 0.05 | 0.00 | 78 | 1015.1 |
| 20260831135827 | 78 | 215 | 0.0 | 11.0 | 0.00 | 0.05 | 0.00 | 78 | 1015.1 |
| 20260831135312 | 77 | 227 | 0.0 | 8.0 | 0.00 | 0.05 | 0.00 | 78 | 1015.1 |
| 20260831134815 | 77 | 227 | 1.0 | 10.0 | 0.00 | 0.05 | 0.00 | 79 | 1015.0 |
| 20260831134316 | 77 | 213 | 4.0 | 10.0 | 0.00 | 0.05 | 0.00 | 79 | 1015.0 |
| 20260831133819 | 77 | 198 | 1.0 | 9.0 | 0.00 | 0.05 | 0.00 | 80 | 1015.0 |
| 20260831133331 | 76 | 199 | 0.0 | 6.0 | 0.00 | 0.05 | 0.00 | 81 | 1014.9 |
| 20260831132814 | 76 | 199 | 0.0 | 4.0 | 0.00 | 0.05 | 0.00 | 81 | 1014.9 |
| 20260831132346 | 75 | 213 | 0.0 | 8.0 | 0.00 | 0.05 | 0.00 | 81 | 1014.9 |
| 20260831131845 | 75 | 190 | 0.0 | 8.0 | 0.00 | 0.05 | 0.00 | 81 | 1015.0 |
| 20260831131359 | 74 | 197 | 1.0 | 7.0 | 0.00 | 0.05 | 0.00 | 81 | 1015.0 |
| 20260831130824 | 74 | 174 | 0.0 | 6.0 | 0.00 | 0.05 | 0.00 | 81 | 1015.0 |
| 20260831130332 | 74 | 188 | 1.0 | 6.0 | 0.00 | 0.06 | 0.00 | 81 | 1014.9 |
| 20260831125817 | 74 | 177 | 1.0 | 6.0 | 0.00 | 0.06 | 0.00 | 81 | 1014.9 |
| 20260831125326 | 74 | 178 | 2.0 | 6.0 | 0.00 | 0.06 | 0.00 | 81 | 1014.9 |
| 20260831124826 | 73 | 188 | 1.0 | 6.0 | 0.00 | 0.06 | 0.00 | 81 | 1014.8 |
| 20260831124327 | 73 | 197 | 0.0 | 4.0 | 0.00 | 0.06 | 0.00 | 81 | 1014.8 |
| 20260831123843 | 73 | 179 | 0.0 | 1.0 | 0.00 | 0.06 | 0.00 | 81 | 1014.8 |
| 20260831123343 | 73 | 179 | 0.0 | 1.0 | 0.00 | 0.06 | 0.00 | 82 | 1014.7 |
| 20260831122827 | 73 | 179 | 0.0 | 1.0 | 0.00 | 0.06 | 0.00 | 82 | 1014.7 |
| 20260831122329 | 73 | 179 | 0.0 | 1.0 | 0.00 | 0.06 | 0.00 | 82 | 1014.7 |
| 20260831121850 | 73 | 179 | 0.0 | 1.0 | 0.00 | 0.06 | 0.00 | 82 | 1014.7 |
| 20260831121317 | 73 | 179 | 0.0 | 1.0 | 0.00 | 0.06 | 0.00 | 82 | 1014.7 |
| 20260831120832 | 73 | 179 | 0.0 | 1.0 | 0.00 | 0.06 | 0.00 | 82 | 1014.7 |
| 20260831120335 | 73 | 179 | 0.0 | 1.0 | 0.00 | 0.06 | 0.00 | 82 | 1014.8 |
| 20260831115823 | 73 | 179 | 0.0 | 0.0 | 0.00 | 0.06 | 0.00 | 81 | 1014.8 |
| 20260831115326 | 73 | 179 | 0.0 | 0.0 | 0.00 | 0.06 | 0.00 | 81 | 1014.8 |
| 20260831114828 | 73 | 179 | 0.0 | 0.0 | 0.00 | 0.06 | 0.00 | 81 | 1014.9 |
| 20260831114311 | 73 | 179 | 0.0 | 0.0 | 0.00 | 0.06 | 0.00 | 81 | 1014.9 |
| 20260831113815 | 73 | 179 | 0.0 | 0.0 | 0.00 | 0.06 | 0.00 | 81 | 1014.9 |
| 20260831113321 | 73 | 179 | 0.0 | 1.0 | 0.00 | 0.06 | 0.00 | 82 | 1014.6 |
| 20260831112858 | 73 | 179 | 0.0 | 1.0 | 0.00 | 0.06 | 0.00 | 81 | 1014.6 |
| 20260831112338 | 73 | 185 | 0.0 | 1.0 | 0.00 | 0.06 | 0.00 | 81 | 1014.6 |
| 20260831111823 | 73 | 185 | 0.0 | 1.0 | 0.00 | 0.06 | 0.00 | 81 | 1014.5 |
| 20260831111329 | 73 | 222 | 0.0 | 0.0 | 0.00 | 0.06 | 0.00 | 81 | 1014.5 |
| 20260831110844 | 73 | 222 | 0.0 | 1.0 | 0.00 | 0.06 | 0.00 | 81 | 1014.5 |
| 20260831110330 | 73 | 223 | 0.0 | 1.0 | 0.00 | 0.06 | 0.00 | 81 | 1014.6 |
| 20260831105848 | 73 | 241 | 0.0 | 0.0 | 0.00 | 0.06 | 0.00 | 81 | 1014.6 |
| 20260831105329 | 73 | 241 | 0.0 | 0.0 | 0.00 | 0.06 | 0.00 | 81 | 1014.6 |
| 20260831104830 | 74 | 241 | 0.0 | 0.0 | 0.00 | 0.06 | 0.00 | 81 | 1014.6 |
| 20260831104317 | 74 | 241 | 0.0 | 0.0 | 0.00 | 0.06 | 0.00 | 81 | 1014.6 |
| 20260831103817 | 74 | 242 | 0.0 | 0.0 | 0.00 | 0.06 | 0.00 | 81 | 1014.6 |
| 20260831103319 | 74 | 242 | 0.0 | 0.0 | 0.00 | 0.06 | 0.00 | 81 | 1014.5 |
| 20260831102853 | 74 | 242 | 0.0 | 0.0 | 0.00 | 0.06 | 0.00 | 81 | 1014.5 |
| 20260831102333 | 74 | 242 | 0.0 | 0.0 | 0.00 | 0.06 | 0.00 | 80 | 1014.5 |
| 20260831101823 | 74 | 242 | 0.0 | 0.0 | 0.00 | 0.06 | 0.00 | 80 | 1014.5 |
| 20260831101327 | 74 | 242 | 0.0 | 0.0 | 0.00 | 0.06 | 0.00 | 80 | 1014.5 |
| 20260831100840 | 74 | 242 | 0.0 | 0.0 | 0.00 | 0.06 | 0.00 | 80 | 1014.5 |
| 20260831100327 | 74 | 242 | 0.0 | 4.0 | 0.00 | 0.06 | 0.00 | 80 | 1014.5 |
| 20260831095828 | 74 | 242 | 0.0 | 4.0 | 0.00 | 0.06 | 0.00 | 80 | 1014.5 |
| 20260831095319 | 74 | 256 | 0.0 | 7.0 | 0.00 | 0.06 | 0.00 | 80 | 1014.5 |
| 20260831094812 | 74 | 256 | 0.0 | 8.0 | 0.00 | 0.06 | 0.00 | 80 | 1014.5 |
| 20260831094320 | 74 | 242 | 0.0 | 8.0 | 0.00 | 0.06 | 0.00 | 80 | 1014.5 |
| 20260831093824 | 74 | 236 | 3.0 | 8.0 | 0.00 | 0.06 | 0.00 | 80 | 1014.5 |
| 20260831093328 | 74 | 219 | 0.0 | 12.0 | 0.00 | 0.06 | 0.00 | 80 | 1014.2 |
| 20260831092832 | 74 | 229 | 0.0 | 7.0 | 0.00 | 0.06 | 0.00 | 80 | 1014.2 |
| 20260831092348 | 74 | 229 | 0.0 | 7.0 | 0.00 | 0.06 | 0.00 | 80 | 1014.2 |
| 20260831091829 | 74 | 229 | 1.0 | 5.0 | 0.00 | 0.06 | 0.00 | 80 | 1014.2 |
| 20260831091316 | 74 | 231 | 0.0 | 4.0 | 0.00 | 0.06 | 0.00 | 80 | 1014.2 |
| 20260831090819 | 74 | 231 | 0.0 | 7.0 | 0.00 | 0.06 | 0.00 | 80 | 1014.2 |
| 20260831090324 | 74 | 234 | 1.0 | 11.0 | 0.00 | 0.06 | 0.00 | 81 | 1014.0 |
| 20260831085829 | 74 | 211 | 1.0 | 11.0 | 0.00 | 0.06 | 0.00 | 81 | 1014.0 |
| 20260831085345 | 74 | 172 | 0.0 | 4.0 | 0.00 | 0.06 | 0.00 | 81 | 1014.0 |
| 20260831084826 | 73 | 171 | 0.0 | 4.0 | 0.00 | 0.06 | 0.00 | 81 | 1014.0 |
| 20260831084325 | 73 | 171 | 0.0 | 1.0 | 0.00 | 0.06 | 0.00 | 82 | 1014.0 |
| 20260831083851 | 73 | 180 | 0.0 | 1.0 | 0.00 | 0.06 | 0.00 | 82 | 1014.0 |
| 20260831083320 | 73 | 180 | 0.0 | 4.0 | 0.00 | 0.06 | 0.00 | 82 | 1014.2 |
| 20260831082838 | 73 | 206 | 0.0 | 0.0 | 0.00 | 0.06 | 0.00 | 82 | 1014.2 |
| 20260831082341 | 73 | 206 | 0.0 | 0.0 | 0.00 | 0.06 | 0.00 | 82 | 1014.2 |
| 20260831081845 | 72 | 206 | 0.0 | 5.0 | 0.00 | 0.06 | 0.00 | 82 | 1014.5 |
| 20260831081333 | 72 | 206 | 1.0 | 5.0 | 0.00 | 0.06 | 0.00 | 83 | 1014.5 |
| 20260831080817 | 72 | 209 | 0.0 | 0.0 | 0.00 | 0.06 | 0.00 | 82 | 1014.5 |
| 20260831080322 | 72 | 209 | 0.0 | 5.0 | 0.00 | 0.06 | 0.00 | 82 | 1014.6 |
| 20260831075826 | 72 | 209 | 0.0 | 5.0 | 0.00 | 0.06 | 0.00 | 82 | 1014.6 |
| 20260831075342 | 72 | 209 | 0.0 | 6.0 | 0.00 | 0.06 | 0.00 | 82 | 1014.6 |
| 20260831074824 | 72 | 209 | 0.0 | 6.0 | 0.00 | 0.06 | 0.00 | 82 | 1014.8 |
| 20260831074348 | 72 | 212 | 0.0 | 7.0 | 0.00 | 0.06 | 0.00 | 82 | 1014.8 |
| 20260831073815 | 72 | 221 | 0.0 | 7.0 | 0.00 | 0.06 | 0.00 | 82 | 1014.8 |
| 20260831073321 | 72 | 186 | 0.0 | 0.0 | 0.00 | 0.06 | 0.00 | 82 | 1014.8 |
| 20260831072835 | 72 | 186 | 0.0 | 0.0 | 0.00 | 0.06 | 0.00 | 82 | 1014.8 |
| 20260831072343 | 72 | 186 | 0.0 | 0.0 | 0.00 | 0.06 | 0.00 | 82 | 1014.8 |
| 20260831071844 | 72 | 178 | 0.0 | 0.0 | 0.00 | 0.06 | 0.00 | 82 | 1015.0 |
| 20260831071357 | 72 | 178 | 0.0 | 1.0 | 0.00 | 0.06 | 0.00 | 82 | 1015.0 |
| 20260831070817 | 72 | 172 | 0.0 | 0.0 | 0.00 | 0.06 | 0.00 | 82 | 1015.0 |
| 20260831070322 | 72 | 172 | 0.0 | 0.0 | 0.00 | 0.06 | 0.00 | 82 | 1015.0 |
| 20260831065826 | 72 | 172 | 0.0 | 0.0 | 0.00 | 0.06 | 0.00 | 82 | 1015.0 |
| 20260831065358 | 72 | 172 | 0.0 | 0.0 | 0.00 | 0.06 | 0.00 | 82 | 1015.0 |
| 20260831064821 | 72 | 172 | 0.0 | 0.0 | 0.00 | 0.06 | 0.00 | 82 | 1015.0 |
| 20260831064345 | 72 | 172 | 0.0 | 0.0 | 0.00 | 0.06 | 0.00 | 82 | 1015.0 |
| 20260831063827 | 72 | 172 | 0.0 | 0.0 | 0.00 | 0.06 | 0.00 | 82 | 1015.0 |
| 20260831063315 | 72 | 172 | 0.0 | 0.0 | 0.00 | 0.06 | 0.00 | 82 | 1015.0 |
| 20260831062831 | 72 | 172 | 0.0 | 0.0 | 0.00 | 0.06 | 0.00 | 82 | 1015.0 |
| 20260831062318 | 72 | 172 | 0.0 | 0.0 | 0.00 | 0.06 | 0.00 | 82 | 1015.0 |
| 20260831061843 | 72 | 172 | 0.0 | 0.0 | 0.00 | 0.06 | 0.00 | 82 | 1015.0 |
| 20260831061356 | 72 | 172 | 0.0 | 0.0 | 0.00 | 0.06 | 0.00 | 82 | 1015.0 |
| 20260831060841 | 72 | 172 | 0.0 | 0.0 | 0.00 | 0.06 | 0.00 | 82 | 1015.0 |
| 20260831060326 | 72 | 172 | 0.0 | 0.0 | 0.00 | 0.06 | 0.00 | 82 | 1015.0 |
| 20260831055829 | 72 | 172 | 0.0 | 0.0 | 0.00 | 0.06 | 0.00 | 82 | 1015.0 |
| 20260831055314 | 72 | 172 | 0.0 | 0.0 | 0.00 | 0.06 | 0.00 | 82 | 1015.0 |
| 20260831054826 | 72 | 172 | 0.0 | 0.0 | 0.00 | 0.06 | 0.00 | 82 | 1015.1 |
| 20260831054352 | 72 | 172 | 0.0 | 0.0 | 0.00 | 0.06 | 0.00 | 82 | 1015.1 |
| 20260831053831 | 72 | 172 | 0.0 | 0.0 | 0.00 | 0.06 | 0.00 | 82 | 1015.1 |
| 20260831053315 | 72 | 172 | 0.0 | 0.0 | 0.00 | 0.06 | 0.00 | 82 | 1015.1 |
| 20260831052850 | 72 | 172 | 0.0 | 0.0 | 0.00 | 0.06 | 0.00 | 82 | 1015.1 |
| 20260831052337 | 72 | 172 | 0.0 | 0.0 | 0.00 | 0.06 | 0.00 | 82 | 1015.1 |
| 20260831051816 | 72 | 172 | 0.0 | 0.0 | 0.00 | 0.06 | 0.00 | 82 | 1015.2 |
| 20260831051338 | 72 | 172 | 0.0 | 0.0 | 0.00 | 0.06 | 0.00 | 82 | 1015.2 |
| 20260831050838 | 72 | 172 | 0.0 | 0.0 | 0.00 | 0.06 | 0.00 | 82 | 1015.2 |
| 20260831050319 | 72 | 172 | 0.0 | 0.0 | 0.00 | 0.06 | 0.00 | 82 | 1015.4 |
| 20260831045847 | 72 | 172 | 0.0 | 0.0 | 0.00 | 0.06 | 0.00 | 82 | 1015.4 |
| 20260831045315 | 72 | 172 | 0.0 | 0.0 | 0.00 | 0.06 | 0.00 | 82 | 1015.4 |
| 20260831044817 | 72 | 172 | 0.0 | 0.0 | 0.00 | 0.06 | 0.00 | 82 | 1015.4 |
| 20260831044331 | 72 | 172 | 0.0 | 0.0 | 0.00 | 0.06 | 0.00 | 82 | 1015.4 |
| 20260831043833 | 72 | 172 | 0.0 | 0.0 | 0.00 | 0.06 | 0.00 | 82 | 1015.4 |
| 20260831043319 | 72 | 172 | 0.0 | 0.0 | 0.00 | 0.06 | 0.00 | 82 | 1015.3 |
| 20260831042830 | 72 | 172 | 0.0 | 0.0 | 0.00 | 0.06 | 0.00 | 82 | 1015.3 |
| 20260831042347 | 72 | 172 | 0.0 | 0.0 | 0.00 | 0.06 | 0.00 | 82 | 1015.3 |
| 20260831041827 | 72 | 172 | 0.0 | 0.0 | 0.00 | 0.06 | 0.00 | 82 | 1015.4 |
| 20260831041331 | 72 | 172 | 0.0 | 0.0 | 0.00 | 0.06 | 0.00 | 82 | 1015.4 |
| 20260831040831 | 72 | 172 | 0.0 | 0.0 | 0.00 | 0.06 | 0.00 | 82 | 1015.4 |
| 20260831040328 | 72 | 172 | 0.0 | 0.0 | 0.00 | 0.06 | 0.06 | 82 | 1015.4 |
| 20260831035815 | 72 | 172 | 0.0 | 4.0 | 0.00 | 0.06 | 0.06 | 82 | 1015.4 |
| 20260831035317 | 72 | 173 | 0.0 | 4.0 | 0.00 | 0.06 | 0.06 | 82 | 1015.4 |
| 20260831034853 | 72 | 167 | 0.0 | 1.0 | 0.00 | 0.06 | 0.06 | 82 | 1015.1 |
| 20260831034333 | 72 | 167 | 0.0 | 1.0 | 0.00 | 0.06 | 0.06 | 82 | 1015.1 |
| 20260831033817 | 72 | 165 | 0.0 | 6.0 | 0.00 | 0.06 | 0.06 | 82 | 1015.1 |
| 20260831033314 | 72 | 163 | 2.0 | 7.0 | 0.00 | 0.06 | 0.06 | 82 | 1015.0 |
| 20260831032829 | 72 | 158 | 1.0 | 7.0 | 0.00 | 0.06 | 0.06 | 82 | 1015.0 |
| 20260831032332 | 72 | 163 | 1.0 | 7.0 | 0.00 | 0.06 | 0.06 | 82 | 1015.0 |
| 20260831031819 | 72 | 164 | 1.0 | 5.0 | 0.00 | 0.06 | 0.06 | 82 | 1015.1 |
| 20260831031323 | 72 | 161 | 2.0 | 6.0 | 0.00 | 0.06 | 0.06 | 82 | 1015.1 |
| 20260831030827 | 72 | 164 | 0.0 | 7.0 | 0.00 | 0.06 | 0.06 | 82 | 1015.1 |
| 20260831030317 | 72 | 151 | 2.0 | 7.0 | 0.00 | 0.06 | 0.06 | 82 | 1015.2 |
| 20260831025834 | 71 | 155 | 0.0 | 4.0 | 0.00 | 0.06 | 0.06 | 82 | 1015.2 |
| 20260831025319 | 71 | 147 | 1.0 | 4.0 | 0.00 | 0.06 | 0.06 | 82 | 1015.2 |
| 20260831024828 | 71 | 146 | 0.0 | 1.0 | 0.00 | 0.06 | 0.06 | 82 | 1015.2 |
| 20260831024316 | 71 | 146 | 0.0 | 1.0 | 0.00 | 0.06 | 0.06 | 82 | 1015.2 |
| 20260831023820 | 71 | 140 | 0.0 | 0.0 | 0.00 | 0.06 | 0.06 | 82 | 1015.2 |
| 20260831023355 | 71 | 139 | 0.0 | 0.0 | 0.00 | 0.06 | 0.06 | 82 | 1015.3 |
| 20260831022840 | 72 | 138 | 0.0 | 0.0 | 0.00 | 0.06 | 0.06 | 82 | 1015.3 |
| 20260831022317 | 72 | 138 | 0.0 | 0.0 | 0.00 | 0.06 | 0.06 | 82 | 1015.3 |
| 20260831021812 | 72 | 138 | 0.0 | 0.0 | 0.00 | 0.06 | 0.06 | 82 | 1015.2 |
| 20260831021322 | 72 | 138 | 0.0 | 0.0 | 0.00 | 0.06 | 0.06 | 82 | 1015.2 |
| 20260831020823 | 72 | 138 | 0.0 | 0.0 | 0.00 | 0.06 | 0.06 | 82 | 1015.2 |
| 20260831020328 | 72 | 137 | 0.0 | 0.0 | 0.00 | 0.06 | 0.06 | 82 | 1015.2 |
| 20260831015844 | 72 | 137 | 0.0 | 1.0 | 0.00 | 0.06 | 0.06 | 82 | 1015.2 |
| 20260831015327 | 72 | 137 | 0.0 | 1.0 | 0.00 | 0.06 | 0.06 | 82 | 1015.2 |
| 20260831014850 | 72 | 117 | 0.0 | 0.0 | 0.00 | 0.06 | 0.06 | 82 | 1015.1 |
| 20260831014315 | 72 | 117 | 0.0 | 0.0 | 0.00 | 0.06 | 0.06 | 82 | 1015.1 |
| 20260831013822 | 72 | 117 | 0.0 | 0.0 | 0.00 | 0.06 | 0.06 | 82 | 1015.1 |
| 20260831013338 | 72 | 117 | 0.0 | 0.0 | 0.00 | 0.06 | 0.06 | 82 | 1015.1 |
| 20260831012841 | 72 | 117 | 0.0 | 0.0 | 0.00 | 0.06 | 0.06 | 82 | 1015.1 |
| 20260831012328 | 72 | 117 | 0.0 | 0.0 | 0.00 | 0.06 | 0.06 | 82 | 1015.1 |
| 20260831011832 | 72 | 117 | 0.0 | 0.0 | 0.00 | 0.06 | 0.06 | 82 | 1014.8 |
| 20260831011315 | 72 | 117 | 0.0 | 0.0 | 0.00 | 0.06 | 0.06 | 82 | 1014.8 |
| 20260831010846 | 72 | 117 | 0.0 | 0.0 | 0.00 | 0.06 | 0.06 | 82 | 1014.8 |
| 20260831010347 | 72 | 117 | 0.0 | 0.0 | 0.00 | 0.06 | 0.06 | 82 | 1015.0 |
| 20260831005830 | 72 | 117 | 0.0 | 0.0 | 0.00 | 0.06 | 0.06 | 82 | 1015.0 |
| 20260831005318 | 72 | 117 | 0.0 | 0.0 | 0.00 | 0.06 | 0.06 | 82 | 1015.0 |
| 20260831004836 | 72 | 117 | 0.0 | 1.0 | 0.00 | 0.06 | 0.06 | 82 | 1014.9 |
| 20260831004323 | 72 | 117 | 0.0 | 1.0 | 0.00 | 0.06 | 0.06 | 82 | 1014.9 |
| 20260831003828 | 72 | 114 | 0.0 | 0.0 | 0.00 | 0.06 | 0.06 | 82 | 1014.9 |
| 20260831003408 | 72 | 113 | 0.0 | 0.0 | 0.00 | 0.06 | 0.06 | 82 | 1015.0 |
| 20260831002849 | 72 | 113 | 0.0 | 0.0 | 0.00 | 0.06 | 0.06 | 82 | 1015.0 |
| 20260831002315 | 73 | 113 | 0.0 | 0.0 | 0.00 | 0.06 | 0.06 | 82 | 1015.0 |
| 20260831001819 | 73 | 101 | 0.0 | 0.0 | 0.00 | 0.06 | 0.06 | 82 | 1015.1 |
| 20260831001321 | 73 | 101 | 0.0 | 1.0 | 0.00 | 0.06 | 0.06 | 82 | 1015.1 |
| 20260831000839 | 73 | 192 | 0.0 | 0.0 | 0.00 | 0.06 | 0.06 | 82 | 1015.1 |
| 20260831000319 | 73 | 213 | 0.0 | 0.0 | 0.00 | 0.06 | 0.06 | 82 | 1015.3 |
| 20260830235828 | 73 | 213 | 0.0 | 0.0 | 0.00 | 0.06 | 0.06 | 82 | 1015.3 |
| 20260830235321 | 73 | 213 | 0.0 | 0.0 | 0.00 | 0.06 | 0.06 | 82 | 1015.3 |
| 20260830234824 | 73 | 213 | 0.0 | 0.0 | 0.00 | 0.06 | 0.06 | 82 | 1015.4 |
| 20260830234330 | 73 | 213 | 0.0 | 0.0 | 0.00 | 0.06 | 0.06 | 82 | 1015.4 |
| 20260830233845 | 73 | 213 | 0.0 | 0.0 | 0.00 | 0.06 | 0.06 | 82 | 1015.4 |
| 20260830233327 | 73 | 213 | 0.0 | 0.0 | 0.00 | 0.06 | 0.06 | 82 | 1015.6 |
| 20260830232833 | 73 | 213 | 0.0 | 0.0 | 0.00 | 0.06 | 0.06 | 82 | 1015.6 |
| 20260830232321 | 73 | 213 | 0.0 | 0.0 | 0.00 | 0.06 | 0.06 | 82 | 1015.6 |